Location: Madingley
(52.2167°N, 0.0500°E)
Time: 20:29:49
(UTC+00:00)

SL-08 R/B - Pass Details

Date: 15 May 2026
Orbit: 666 x 729 km, 98.5° (Epoch: 8 June)

Event Time Altitude Azimuth Distance (km) Brightness Sun altitude
Rises 21:18:16 0° 11° (NNE) 3,140 7.3 -10.9°
Reaches altitude 10° 21:20:36 10° 7° (N) 2,207 6.6 -11.1°
Maximum altitude 21:25:15 50° 293° (WNW) 902 4.3 -11.6°
Drops below altitude 10° 21:29:49 10° 219° (SW) 2,153 5.7 -12.0°
Sets 21:32:05 0° 214° (SSW) 3,056 6.4 -12.2°
